Flag for Germany Weather past 2 weeks in Freising, Bavaria, Germany

Now
42 °F

Light rain. Overcast.


Feels Like: 37 °F
Forecast: 40 / 45 °F
Wind: 9 mph from West

Location: Muenchen Flughafen

Current Time: Oct 22, 2014 at 2:14:37 PM

Latest Report: Oct 22, 2014 at 1:00 PM


Visibility: 6 mi

Pressure: 30.00 "Hg

Humidity: 85%

Dew point: 38 °F

Location of FreisingLocation

Historic Weather in Freising — Graph

°F

Freising temperature yesterday

Maximum temperature yesterday: 62 °F (at 4:00 PM)
Minimum temperature yesterday: 47 °F (at 10:00 PM)
Average temperature yesterday: 56 °F

Past Weeks' High & Low Weather Summary

 TemperatureHumidityPressure
High76 °F (Oct 9, 3:00 PM)100% (Oct 9, 2:00 AM)30.29 "Hg (Oct 9, 2:00 AM)
Low40 °F (Oct 19, 7:00 AM)40% (Oct 9, 3:00 PM)29.62 "Hg (Oct 21, 9:00 PM)
Average56 °F85%29.95 "Hg
* Reported Oct 7 1:00 PM — Oct 22 1:00 PM, Freising, Weather by CustomWeather, © 2014

Note: Actual official high and low records may vary slightly from our data, if they occured in-between our weather recording intervals... More about our weather records

Advertising

Freising weather history for previous 24 hours

 ConditionsComfort  
Time TempWeatherWind HumidityBarometerVisibility
1:00 PM
Oct 22
42 °FLight rain. Overcast.9 mph85%30.00 "Hg6 mi
12:00 PM43 °FLight rain. Overcast.10 mph83%30.00 "Hg6 mi
11:00 AM42 °FLight rain. Overcast.9 mph88%29.99 "Hg6 mi
10:00 AM42 °FLight rain. Overcast.9 mph88%29.98 "Hg5 mi
9:00 AM43 °FLight rain. Overcast.10 mph78%29.96 "Hg6 mi
8:00 AM43 °FLight rain. Overcast.8 mph82%29.95 "Hg25 mi
7:00 AM43 °FPassing clouds.7 mph83%29.93 "Hg37 mi
6:00 AM42 °FOvercast.8 mph86%29.91 "Hg37 mi
5:00 AM43 °FOvercast.8 mph81%29.93 "Hg37 mi
4:00 AM44 °FPassing clouds.8 mph79%29.91 "Hg37 mi
3:00 AM44 °FPassing clouds.8 mph79%29.94 "Hg37 mi
2:00 AM45 °FOvercast.8 mph79%29.93 "Hg31 mi
1:00 AM46 °FOvercast.9 mph77%29.91 "Hg31 mi
12:00 AM46 °FOvercast.13 mph84%29.88 "Hg31 mi
11:00 PM
Oct 21
47 °FOvercast.13 mph82%29.86 "Hg37 mi
10:00 PM47 °FSprinkles. Overcast.15 mph78%29.75 "Hg16 mi
9:00 PM60 °FSprinkles. Overcast.9 mph68%29.62 "Hg31 mi
8:00 PM58 °FPassing clouds.7 mph71%29.67 "Hg43 mi
7:00 PM60 °FSprinkles. Overcast.10 mph64%29.69 "Hg37 mi
6:00 PM61 °FOvercast.2 mph71%29.71 "Hg43 mi
5:00 PM62 °FOvercast.3 mph73%29.73 "Hg37 mi
4:00 PM62 °FPartly sunny.6 mph76%29.76 "Hg37 mi
3:00 PM60 °FOvercast.5 mph81%29.80 "Hg19 mi
2:00 PM56 °FSprinkles. Low clouds.3 mph91%29.85 "Hg7 mi
Weather by CustomWeather, © 2014

See weather overviewHow to use our weather pages